RH
27 26 26 26 25 24 24 23 23 22 22 22 21 21 21 21 21 21 21 22 22 22 22 22 23 23 23 24 24 25 25 27 29 30 32 34 35 37 39 41 42 44 46 46 47 47 47 47 46 46 46 46 47 47 47 48 49 50 50 51 51 51 51 51 49 48 46 44 42 40 38 36 34 32 31 30 32 34 37 40 44 46 48 48 48 48
27 27 26 26 25 25 24 23 23 22 22 21 21 21 21 21 22 22 22 22 22 22 23 23 24 24 24 25 25 26 27 29 31 33 35 37 39 41 43 45 47 48 49 49 49 48 48 48 47 47 48 48 49 49 50 51 52 53 54 55 55 55 56 55 55 53 52 51 50 48 45 43 40 37 35 34 34 35 36 34 35 38 42 44 45 46
27 27 26 26 25 24 24 23 22 22 21 21 21 21 22 22 22 22 23 23 23 24 24 25 25 25 25 25 26 27 29 31 34 37 39 41 43 45 48 49 50 50 50 50 49 49 49 49 49 49 50 50 51 52 52 53 54 55 56 57 58 59 59 58 58 58 57 56 55 54 53 51 48 45 41 38 38 38 38 36 36 36 36 38 40 41
28 27 26 25 24 23 23 22 22 21 21 21 22 22 22 23 23 23 24 24 24 25 25 25 25 25 25 26 27 29 32 35 38 41 44 46 48 49 51 51 51 51 51 50 50 50 50 50 51 51 52 52 53 54 55 56 57 57 58 59 60 60 61 61 61 61 61 60 59 59 58 57 55 53 50 47 44 43 44 44 43 42 42 41 40 40
28 27 26 25 24 23 22 22 21 21 22 22 23 23 23 24 24 25 25 25 25 25 25 25 25 26 27 28 30 33 36 40 43 46 48 49 50 51 52 52 51 51 51 50 51 51 51 52 52 53 53 54 55 55 56 57 58 59 60 60 61 62 62 62 63 63 63 63 62 62 62 61 60 59 57 55 52 50 48 48 48 47 47 47 46 45
27 26 25 24 23 23 22 22 22 22 23 23 24 25 25 25 25 26 26 26 26 25 25 25 26 27 29 32 35 38 42 45 48 49 51 51 51 52 52 51 51 50 50 50 51 52 52 53 53 54 54 55 56 56 57 57 58 59 60 60 61 62 63 63 64 64 65 65 65 65 64 64 63 63 62 61 59 56 53 51 50 50 49 49 49 49
26 25 24 24 23 23 23 23 23 24 24 25 26 26 27 26 26 26 26 26 25 25 25 26 28 30 33 37 40 44 47 50 51 52 52 52 52 51 51 50 50 50 50 51 52 52 53 54 54 54 55 55 56 57 57 58 59 59 60 61 61 62 63 64 64 65 66 66 67 67 67 66 66 65 65 64 63 62 60 57 54 51 48 47 46 46
25 24 24 24 24 23 23 24 25 27 27 27 28 28 28 28 27 26 26 25 25 26 27 28 31 35 39 43 47 50 52 53 53 53 52 52 51 50 50 49 49 50 50 51 52 53 53 54 54 55 55 56 57 57 58 58 59 60 60 61 62 62 63 64 65 66 67 68 68 68 69 68 68 68 67 66 65 64 64 62 60 57 53 49 46 44
24 24 24 24 25 25 24 25 27 29 30 30 29 29 28 27 26 26 25 25 26 27 30 33 37 41 46 50 52 54 55 54 54 53 52 51 51 50 49 49 49 50 50 51 52 52 53 53 54 55 55 56 57 58 58 59 60 60 61 62 62 63 64 65 66 67 68 69 70 70 70 70 70 69 68 68 67 66 65 65 64 63 61 57 53 49
25 24 24 25 26 28 29 28 29 30 31 31 30 30 29 27 26 26 26 26 28 31 35 40 44 48 52 54 56 56 56 55 54 53 52 51 50 49 49 49 49 50 50 50 51 52 52 53 54 55 56 57 58 58 59 60 60 61 62 63 64 65 66 67 68 69 70 71 71 72 72 72 71 70 70 69 68 66 66 65 65 64 64 63 61 59
25 25 26 27 29 31 33 32 31 30 30 30 29 29 29 28 27 27 28 29 32 37 42 47 51 54 56 57 58 57 57 55 54 53 52 50 49 48 48 48 48 49 49 50 50 51 52 53 54 55 56 57 58 59 60 61 61 62 64 65 66 67 68 70 70 71 72 72 72 73 73 72 72 71 70 69 68 67 65 64 64 64 64 64 64 64
27 29 30 31 32 33 34 33 32 30 29 28 28 28 28 28 29 31 32 35 39 43 49 53 56 58 60 60 59 58 57 56 54 53 51 50 48 48 47 48 48 48 49 50 51 51 53 54 55 56 57 59 59 60 61 62 63 64 66 67 68 69 70 72 73 73 73 73 73 73 73 72 72 71 70 69 67 66 64 63 62 62 62 62 63 64
31 33 35 35 35 33 32 30 29 29 29 29 29 29 29 31 33 35 38 42 46 50 54 57 59 61 61 61 60 59 57 55 54 52 51 50 49 48 48 48 49 49 50 51 52 53 54 55 56 58 59 60 61 62 63 64 65 66 68 69 70 71 72 73 74 74 74 74 74 73 73 72 71 71 70 69 67 65 63 62 61 61 60 60 61 61
35 36 36 35 33 31 29 29 29 29 30 30 31 31 32 35 37 41 45 49 53 56 59 60 61 62 62 62 60 59 57 55 54 53 52 51 50 50 49 50 50 50 52 52 53 55 56 58 59 60 61 62 63 64 66 67 68 69 70 70 71 71 72 72 73 73 73 73 73 73 73 72 71 70 70 68 66 64 63 62 61 60 59 59 58 58
37 36 35 32 31 30 30 30 31 31 31 32 33 35 37 40 44 48 52 55 58 60 62 63 63 63 63 62 61 59 57 55 54 54 54 53 53 52 52 52 52 52 53 55 56 57 58 60 61 62 63 65 66 68 69 70 70 70 70 70 70 70 70 70 70 70 71 71 71 72 72 71 71 70 69 67 65 63 62 60 59 58 57 56 55 55
35 34 33 31 31 31 31 32 33 33 33 35 37 40 43 47 51 55 58 60 62 63 64 64 64 63 63 63 62 60 58 56 55 55 55 55 55 55 55 55 54 54 56 57 58 59 60 62 63 64 66 68 69 70 71 71 71 70 70 70 69 69 69 69 68 68 68 68 69 69 69 69 69 68 66 65 64 62 61 59 58 57 55 54 53 52
32 32 32 32 32 32 33 34 35 36 37 39 42 46 50 54 57 60 63 64 65 66 66 66 65 64 63 63 63 62 60 59 58 57 57 57 57 58 58 58 57 57 58 59 60 61 62 64 66 67 69 71 72 72 72 71 70 70 69 69 69 69 69 68 68 67 67 67 67 67 67 67 66 65 64 63 62 61 60 59 58 57 57 55 54 52
33 33 33 33 34 35 35 36 37 39 42 45 49 53 57 60 63 64 65 66 67 68 68 67 67 66 64 64 64 64 62 62 60 59 58 59 60 60 61 61 60 60 60 61 62 63 64 66 68 70 71 72 72 72 72 71 70 69 69 69 70 70 70 69 68 67 66 66 65 65 65 64 64 63 63 62 61 60 60 60 60 60 60 59 57 55
34 34 34 35 36 37 38 39 42 45 49 53 56 60 62 64 65 66 67 68 69 69 69 68 67 66 66 65 65 65 65 64 63 62 61 61 62 63 63 63 62 62 62 63 63 65 66 68 70 72 73 73 73 72 71 70 69 68 69 70 72 72 72 70 68 67 66 65 65 64 64 63 63 63 62 62 61 61 62 63 63 64 63 63 62 60
36 36 37 38 39 40 42 45 48 53 57 60 63 64 65 66 66 67 68 69 70 70 69 69 68 67 67 67 66 66 66 66 65 64 63 63 64 65 65 65 64 63 63 64 65 66 68 70 72 74 74 73 72 70 69 67 67 67 68 71 73 74 73 71 69 68 67 67 66 65 64 64 63 63 63 63 63 64 65 66 67 67 67 67 66 64
38 39 39 41 43 45 48 51 55 60 63 65 66 67 67 67 68 69 70 71 70 70 69 69 69 69 69 68 68 68 67 67 66 65 64 64 65 66 66 66 64 64 64 64 65 67 69 71 73 74 74 72 70 69 67 66 65 65 66 70 73 75 74 71 70 69 69 68 67 66 66 65 65 65 65 66 67 68 69 70 70 70 69 68 66 64
40 41 42 45 48 51 54 58 62 65 67 68 68 68 67 68 69 70 71 71 71 71 70 70 70 70 70 69 69 68 68 68 67 66 65 65 65 66 67 66 65 64 64 65 66 68 70 72 74 74 73 70 68 66 65 63 63 63 65 70 74 75 74 72 70 70 70 70 69 69 68 68 68 68 69 69 70 71 72 72 71 71 70 68 66 64
43 44 46 49 53 57 61 64 67 68 69 70 69 69 69 70 70 71 71 71 71 71 71 70 70 70 70 70 69 68 68 68 68 68 68 67 67 66 67 66 65 65 64 66 67 68 70 73 74 74 71 68 66 64 63 62 62 63 65 71 75 77 75 73 72 72 72 72 72 72 73 73 73 73 73 73 74 74 74 74 74 74 73 72 70 68
46 49 52 55 59 63 66 68 69 70 71 70 70 70 70 71 71 71 71 71 71 71 71 70 70 70 70 69 69 68 67 67 68 69 70 69 68 67 67 66 65 65 65 66 68 69 71 73 74 72 69 66 65 63 63 63 63 64 67 73 77 79 77 76 75 75 75 75 75 76 76 76 77 77 77 77 77 77 77 77 76 76 76 75 75 74
51 54 57 61 64 68 70 71 71 71 71 70 70 70 70 70 71 71 71 71 72 72 71 71 70 69 68 68 67 66 65 66 68 69 71 70 68 67 67 67 66 66 67 68 69 70 72 72 72 69 66 65 64 63 63 63 64 66 70 75 79 80 80 79 79 79 79 79 79 79 79 79 79 80 80 80 80 80 80 79 78 77 77 76 75 75
56 59 62 65 68 70 71 71 71 71 71 70 70 70 70 70 71 71 71 71 71 71 70 69 68 67 66 66 65 63 62 63 66 68 70 69 68 67 67 67 68 68 69 69 70 70 71 70 69 67 65 64 63 62 62 64 66 68 72 76 79 81 81 81 81 81 81 81 81 81 81 80 80 80 80 80 80 80 79 78 78 77 76 75 74 73
60 63 66 68 69 70 70 70 70 70 70 70 71 71 71 71 70 70 70 70 70 69 67 66 65 64 64 63 62 60 59 60 63 66 67 67 67 67 67 68 69 70 71 71 70 69 69 67 66 65 64 63 63 63 63 65 67 69 71 74 76 77 78 78 78 78 78 78 78 77 77 77 76 76 75 75 76 75 75 75 75 74 74 75 75 74
63 65 67 68 69 70 70 70 70 70 71 71 71 71 71 70 70 69 68 68 67 66 64 63 63 62 62 60 59 57 56 58 61 63 64 65 66 67 68 69 70 71 72 72 70 68 65 63 62 62 62 62 63 64 65 66 67 69 69 71 72 73 73 72 72 71 71 71 71 71 72 72 72 73 73 74 74 74 75 75 76 77 77 77 77 76
64 66 68 69 69 70 70 70 70 71 71 72 71 71 70 70 68 67 66 65 64 63 61 61 61 60 60 59 56 54 52 54 58 60 62 63 65 67 69 70 71 72 73 73 70 65 61 59 59 60 61 62 63 64 65 66 67 68 69 70 71 72 72 71 71 70 70 71 72 72 73 74 75 76 76 77 77 78 79 80 80 80 79 79 78 77
66 67 69 69 70 71 71 71 71 71 71 71 71 70 69 67 66 64 63 63 62 60 59 59 59 59 58 56 54 51 49 51 55 58 60 62 64 67 70 71 72 73 74 73 69 64 58 55 56 58 60 61 63 64 65 66 66 67 69 70 71 72 72 73 73 74 74 74 75 76 77 77 78 79 80 80 80 81 82 82 82 81 81 80 78 78
67 69 70 71 71 72 72 72 72 72 71 70 69 67 66 64 63 62 61 60 59 59 58 58 57 57 55 53 51 50 48 50 53 56 58 59 63 67 71 73 73 74 74 73 69 63 57 54 55 57 60 62 63 64 65 65 66 67 68 69 69 70 70 71 72 73 74 74 75 76 77 78 79 80 81 82 82 83 83 83 82 82 81 80 79 77
69 71 72 72 72 73 73 72 72 71 70 68 66 64 62 61 60 59 58 58 57 57 56 55 54 53 52 50 50 49 48 50 52 55 56 57 61 66 71 73 74 74 74 71 67 63 59 56 56 58 60 62 62 63 63 64 64 65 67 67 68 67 67 68 69 70 71 73 74 75 76 77 78 80 81 82 82 82 82 82 81 80 79 78 77 75
71 72 73 73 73 73 73 72 71 69 66 64 61 60 58 57 57 57 56 55 55 54 54 53 52 51 50 49 49 49 49 51 52 53 54 56 61 66 72 74 75 75 73 69 65 62 60 59 59 60 61 62 62 62 62 63 64 65 66 67 67 67 67 67 68 69 71 73 74 75 76 78 79 80 81 81 80 80 79 79 77 76 74 72 70 69
73 73 73 73 73 72 71 69 67 64 62 59 57 56 55 55 55 55 54 54 53 52 52 51 50 49 49 49 49 49 50 51 52 52 53 55 60 66 72 75 76 74 72 67 64 61 60 60 61 62 62 62 62 62 62 62 64 65 67 68 69 69 68 68 69 70 72 74 75 77 78 79 80 80 81 81 80 79 77 76 74 72 69 66 65 64
73 72 72 71 70 69 67 64 62 59 56 54 53 53 53 53 53 53 52 52 51 51 50 50 49 49 49 49 50 50 50 51 51 52 52 55 60 66 72 75 76 75 71 67 63 61 60 61 62 63 63 62 62 62 62 63 64 66 69 70 71 71 71 70 71 72 73 75 77 78 79 80 81 81 81 81 80 79 78 77 75 72 70 67 65 64
70 70 69 68 66 64 62 59 56 54 52 51 51 51 52 52 52 51 51 50 50 50 49 49 49 49 50 50 51 51 51 51 51 51 51 55 60 67 73 76 76 74 70 66 63 61 61 61 62 63 63 62 62 61 61 62 65 68 71 72 72 72 72 72 73 74 75 77 79 80 81 82 82 82 82 81 81 80 79 79 78 77 75 73 72 70
66 65 64 63 61 59 56 54 52 51 50 50 50 51 51 51 51 51 50 49 49 49 49 49 50 50 51 51 51 51 52 52 51 51 51 55 61 69 75 77 77 74 69 65 63 62 62 62 63 63 63 63 62 61 61 63 65 68 72 73 74 74 74 73 74 75 76 78 79 81 82 82 82 81 80 80 80 81 81 81 80 80 79 79 78 77
60 60 59 57 56 55 53 52 51 50 50 51 52 52 52 52 52 51 50 49 49 49 49 49 50 50 51 52 52 52 52 52 51 51 52 56 63 70 77 78 77 74 69 65 63 63 63 63 63 64 64 63 62 61 62 63 65 68 71 73 74 75 75 75 75 76 77 78 79 81 82 82 81 80 79 80 81 82 82 82 82 82 81 81 80 79
56 55 55 55 54 53 53 52 52 52 53 53 54 54 54 54 54 53 52 51 50 50 50 50 51 51 52 52 53 53 53 52 51 51 52 57 64 71 77 79 77 74 68 65 63 63 63 63 64 64 64 64 63 63 63 64 66 68 70 72 73 75 75 76 76 76 76 78 80 81 81 81 80 79 79 80 82 83 83 83 83 83 83 82 81 80
54 54 54 54 54 54 54 54 54 55 56 56 56 56 56 55 54 53 52 52 52 52 51 51 51 52 52 53 53 54 53 52 51 51 52 58 66 73 78 79 78 74 69 65 63 63 63 64 64 64 65 65 65 65 65 67 68 70 71 73 74 75 75 75 75 75 76 78 80 81 81 80 80 80 80 82 83 84 84 84 83 83 83 82 81 80
54 54 55 56 56 56 56 56 56 57 58 58 58 57 56 55 53 51 51 52 52 52 52 52 52 52 52 52 53 54 53 53 51 51 53 59 67 75 79 80 78 74 69 65 63 63 63 64 64 65 65 66 67 67 68 69 71 72 73 74 75 75 75 75 75 75 77 79 81 82 82 81 80 80 82 84 84 84 84 83 83 83 82 81 80 79
56 57 58 59 59 59 58 57 58 59 60 60 59 57 55 54 52 52 52 53 53 54 54 54 54 53 52 51 52 52 53 53 52 52 54 61 69 76 80 80 78 74 69 65 64 63 64 65 65 66 67 68 69 69 70 71 73 74 75 75 75 75 74 74 74 76 78 81 82 82 82 81 81 82 84 85 85 84 83 83 82 82 81 80 79 78
58 59 61 62 62 61 60 60 60 60 60 60 59 57 55 53 53 53 53 54 55 55 56 56 55 55 54 53 52 51 52 52 52 53 55 62 70 77 81 81 79 75 70 66 64 64 65 65 66 67 68 70 71 72 72 73 74 75 76 76 75 74 73 72 73 76 79 81 82 83 82 82 82 83 84 85 84 83 82 82 82 81 79 79 78 78
62 63 64 64 63 62 62 62 62 62 62 60 59 57 55 54 54 54 54 55 55 56 57 57 57 56 56 56 55 54 52 51 52 53 56 63 71 77 81 81 79 75 70 67 65 65 65 66 67 69 70 72 73 73 74 74 75 76 76 76 75 74 73 73 74 76 79 81 82 83 83 83 83 84 85 84 83 82 81 81 80 79 78 78 78 78
66 67 66 65 64 63 63 63 64 64 63 61 59 58 56 55 55 55 55 56 56 57 57 58 58 57 57 57 57 56 54 52 52 54 57 64 71 77 80 80 79 76 71 67 65 65 66 67 68 70 72 74 75 76 76 76 76 76 75 75 75 74 74 75 76 78 81 81 83 83 83 83 84 84 84 83 81 81 81 81 81 80 80 79 78 77
69 69 67 66 65 64 65 65 65 64 63 61 59 57 56 55 55 56 56 57 57 58 58 58 58 59 58 58 58 57 56 55 55 56 60 66 71 76 79 79 78 75 72 68 66 65 66 67 69 71 74 76 77 77 77 77 77 76 75 75 74 75 75 77 79 80 82 82 83 83 83 84 84 84 83 80 79 80 82 82 82 81 80 78 77 77
70 69 67 66 66 65 65 66 65 64 62 61 59 57 56 56 56 57 58 58 59 59 59 59 59 59 59 58 58 58 58 58 58 60 64 69 73 75 77 77 76 74 71 68 66 65 66 67 69 72 74 76 77 78 77 77 76 76 75 74 74 76 77 79 80 81 82 83 83 83 83 83 84 83 80 78 78 80 82 83 83 81 78 76 76 77
70 69 68 67 67 66 66 65 64 62 60 58 57 56 56 56 57 59 60 60 60 60 60 60 60 60 59 59 59 59 59 59 60 62 66 71 74 76 76 75 74 72 69 66 64 64 64 65 67 70 73 74 75 76 76 76 76 76 75 75 75 77 78 79 80 81 82 82 82 82 83 84 83 82 79 76 77 79 83 83 82 80 77 75 75 76
70 68 68 67 67 66 65 63 61 59 57 56 56 56 57 58 60 61 62 62 61 61 61 61 61 60 60 60 59 59 58 58 60 63 68 73 76 77 75 75 73 71 67 64 63 62 62 64 66 68 71 72 73 73 74 74 75 76 76 76 77 78 79 79 80 81 81 81 81 81 83 84 84 83 81 77 78 80 83 83 82 79 75 73 73 73
69 68 67 67 66 64 62 59 57 56 56 56 57 59 60 61 63 63 63 63 62 62 61 61 61 61 61 60 60 60 59 59 60 64 69 74 77 77 76 75 73 71 68 64 62 61 61 63 64 66 68 69 69 70 70 72 74 76 77 77 78 78 79 80 80 81 81 80 80 82 84 84 84 83 82 80 79 80 82 83 82 79 75 74 74 75
68 67 66 65 63 60 58 56 56 56 57 59 60 62 64 64 65 65 65 64 63 62 62 61 61 61 61 61 61 60 60 60 62 66 71 76 78 78 77 76 74 72 69 66 64 62 62 62 63 65 66 66 67 68 70 72 74 76 78 78 79 79 80 80 81 81 80 80 81 83 85 84 84 83 83 81 81 81 81 83 82 79 76 78 78 79